�N����,����,�~����,�C��,���x,�C��,����,���ϕ���,�ő�u�ԕ���,�ő厞����,���˗�,�I�_���x,�n�����x,�ő啗���N��,DTYPE
"19/11/19","00:10",0.0,15.8,95.5,1007.1,260.7,0.8,1.3,306.1,0.00,15.1,15.1,"00:00:02",1
"19/11/19","00:20",0.0,15.9,95.5,1007.6,299.4,1.1,1.9,328.7,0.00,15.2,15.1,"00:18:30",1
"19/11/19","00:30",0.0,15.8,95.6,1007.8,301.6,1.1,2.0,309.6,0.00,15.1,15.0,"00:26:00",1
"19/11/19","00:40",0.2,15.7,95.7,1007.4,313.2,0.7,1.7,323.7,0.00,15.1,14.9,"00:39:08",1
"19/11/19","00:50",0.0,15.5,95.7,1007.4,303.1,0.7,1.4,318.3,0.00,14.9,15.0,"00:42:28",1
"19/11/19","01:00",0.0,15.6,95.9,1007.4,310.0,1.2,2.0,310.6,0.00,15.0,14.8,"00:59:28",1
"19/11/19","01:10",0.0,15.4,95.9,1007.1,314.2,1.3,2.0,311.2,0.00,14.8,15.2,"01:01:54",1
"19/11/19","01:20",0.0,15.3,96.0,1007.1,304.1,1.1,2.7,319.3,0.00,14.7,15.0,"01:19:44",1
"19/11/19","01:30",0.0,15.3,96.1,1007.4,299.8,1.5,2.7,323.4,0.00,14.7,15.0,"01:23:00",1
"19/11/19","01:40",0.0,15.1,96.1,1007.8,292.4,1.5,3.5,339.3,0.00,14.5,15.2,"01:37:12",1
"19/11/19","01:50",0.0,15.0,96.3,1007.8,300.1,1.5,2.5,304.4,0.00,14.5,14.9,"01:49:50",1
"19/11/19","02:00",0.0,15.0,96.3,1007.8,290.3,1.3,2.9,331.9,0.00,14.5,14.9,"01:51:38",1
"19/11/19","02:10",0.0,14.8,96.4,1008.1,291.4,1.2,2.8,315.5,0.00,14.3,15.1,"02:00:48",1
"19/11/19","02:20",0.0,14.6,96.5,1007.8,326.3,1.5,2.4,341.8,0.00,14.1,15.2,"02:19:52",1
"19/11/19","02:30",0.0,14.3,96.6,1007.8,331.3,1.5,3.5,320.4,0.00,13.8,15.0,"02:21:08",1
"19/11/19","02:40",0.0,14.1,96.7,1007.8,300.0,1.2,2.1,322.5,0.00,13.6,15.1,"02:34:56",1
"19/11/19","02:50",0.0,14.0,96.7,1007.6,317.2,0.6,1.3,324.8,0.00,13.5,15.0,"02:44:26",1
"19/11/19","03:00",0.0,13.8,96.8,1007.8,311.1,1.2,1.9,312.1,0.00,13.3,15.0,"02:55:50",1
"19/11/19","03:10",0.0,13.6,96.9,1008.1,322.8,1.7,2.2,322.5,0.00,13.2,14.7,"03:03:32",1
"19/11/19","03:20",0.0,13.4,97.0,1008.1,319.7,1.8,2.9,330.4,0.00,13.0,14.8,"03:10:26",1
"19/11/19","03:30",0.0,13.6,97.0,1008.1,318.4,2.1,4.5,327.0,0.00,13.2,14.8,"03:22:36",1
"19/11/19","03:40",0.0,13.6,96.9,1008.1,315.2,1.0,2.1,309.5,0.00,13.2,14.7,"03:31:54",1
"19/11/19","03:50",0.0,13.3,96.8,1008.3,324.0,1.2,3.3,349.2,0.00,12.8,14.7,"03:49:36",1
"19/11/19","04:00",0.0,13.2,96.8,1008.1,332.0,2.0,3.3,332.4,0.00,12.7,14.9,"03:52:56",1
"19/11/19","04:10",0.0,13.1,96.5,1008.3,338.4,2.1,4.7,341.9,0.00,12.6,14.7,"04:02:24",1
"19/11/19","04:20",0.0,13.1,96.0,1008.6,341.1,1.7,3.3,346.7,0.00,12.5,14.8,"04:16:28",1
"19/11/19","04:30",0.0,13.0,95.9,1008.3,319.1,1.6,2.6,324.7,0.00,12.4,14.6,"04:23:36",1
"19/11/19","04:40",0.0,12.6,94.9,1008.6,286.8,2.1,4.2,313.3,0.00,11.8,14.9,"04:34:04",1
"19/11/19","04:50",0.0,13.0,95.2,1009.0,290.8,1.5,3.4,238.0,0.00,12.3,14.7,"04:40:40",1
"19/11/19","05:00",0.0,12.9,94.6,1008.8,270.4,1.5,3.3,322.7,0.00,12.1,14.6,"04:56:20",1
"19/11/19","05:10",0.0,12.5,93.4,1009.0,305.7,2.1,5.2,332.8,0.00,11.5,14.6,"05:08:50",1
"19/11/19","05:20",0.0,12.8,92.4,1009.3,304.9,2.0,5.5,324.6,0.00,11.6,14.6,"05:14:04",1
"19/11/19","05:30",0.0,12.7,90.8,1009.5,290.7,1.2,3.1,323.6,0.00,11.3,14.5,"05:24:50",1
"19/11/19","05:40",0.0,12.7,89.3,1009.5,287.2,1.0,1.6,295.4,0.00,11.0,14.3,"05:32:24",1
"19/11/19","05:50",0.0,12.4,88.1,1009.3,269.6,1.1,2.8,329.4,0.00,10.5,14.4,"05:43:16",1
"19/11/19","06:00",0.0,12.0,87.2,1009.5,290.6,1.5,2.5,313.0,0.00,10.0,14.4,"05:52:14",1
"19/11/19","06:10",0.0,11.6,86.9,1009.7,309.2,1.3,2.8,332.8,0.00,9.5,14.3,"06:02:56",1
"19/11/19","06:20",0.0,11.4,86.9,1010.0,335.8,1.1,2.5,323.1,0.00,9.3,14.2,"06:10:16",1
"19/11/19","06:30",0.0,10.7,87.2,1009.5,301.1,1.5,2.8,314.3,0.00,8.7,14.2,"06:29:36",1
"19/11/19","06:40",0.0,10.4,87.7,1009.7,308.3,1.5,2.4,323.2,0.00,8.5,14.3,"06:35:46",1
"19/11/19","06:50",0.0,10.2,87.9,1010.0,302.6,1.2,1.8,311.1,0.00,8.3,14.2,"06:46:56",1
"19/11/19","07:00",0.0,10.2,88.6,1010.0,310.0,1.3,2.7,310.9,0.00,8.4,14.1,"06:59:44",1
"19/11/19","07:10",0.0,10.2,89.0,1009.7,319.1,1.7,2.6,321.8,0.00,8.5,13.9,"07:08:08",1
"19/11/19","07:20",0.0,10.2,89.6,1009.7,320.9,1.8,3.2,309.2,0.00,8.6,13.9,"07:17:12",1
"19/11/19","07:30",0.0,10.1,89.9,1009.7,315.4,1.8,2.9,333.0,0.00,8.6,13.7,"07:29:44",1
"19/11/19","07:40",0.0,10.2,90.2,1010.0,312.4,1.7,2.6,309.1,0.00,8.7,13.8,"07:30:48",1
"19/11/19","07:50",0.0,10.7,90.2,1010.2,314.4,1.8,3.1,318.8,0.03,9.2,13.7,"07:44:24",1
"19/11/19","08:00",0.0,11.5,89.5,1010.4,315.9,1.5,2.4,317.7,0.05,9.9,13.8,"07:51:04",1
"19/11/19","08:10",0.0,12.4,88.5,1011.2,296.8,1.3,2.4,265.1,0.06,10.6,13.8,"08:05:52",1
"19/11/19","08:20",0.0,12.8,85.9,1011.4,300.9,1.8,3.6,339.1,0.06,10.5,13.9,"08:18:16",1
"19/11/19","08:30",0.0,12.9,82.0,1011.6,300.1,2.1,3.5,340.7,0.08,9.9,13.7,"08:29:44",1
"19/11/19","08:40",0.0,13.0,76.4,1011.4,313.7,2.5,5.8,347.0,0.06,9.0,13.7,"08:30:40",1
"19/11/19","08:50",0.0,12.8,72.5,1011.9,325.4,2.2,4.5,329.0,0.05,8.0,14.0,"08:49:12",1
"19/11/19","09:00",0.0,13.0,67.2,1011.9,334.4,3.2,6.8,317.2,0.10,7.1,13.9,"08:55:44",1
"19/11/19","09:10",0.0,13.5,66.1,1011.9,323.6,2.5,5.2,330.5,0.14,7.3,13.9,"09:08:32",1
"19/11/19","09:20",0.0,13.6,62.2,1011.9,335.0,3.5,6.6,317.5,0.17,6.6,14.1,"09:17:36",1
"19/11/19","09:30",0.0,13.8,60.6,1012.1,332.4,3.5,8.5,292.5,0.20,6.4,14.1,"09:29:28",1
"19/11/19","09:40",0.0,13.9,59.5,1011.9,336.0,3.4,7.0,350.7,0.21,6.2,14.0,"09:33:28",1
"19/11/19","09:50",0.0,13.9,58.6,1011.9,341.2,3.4,5.8,335.5,0.23,6.0,14.2,"09:47:36",1
"19/11/19","10:00",0.0,14.1,58.4,1011.9,333.3,3.5,7.2,320.5,0.25,6.1,14.2,"09:52:08",1
"19/11/19","10:10",0.0,14.3,57.6,1012.1,329.4,3.1,8.0,341.2,0.27,6.1,14.4,"10:04:08",1
"19/11/19","10:20",0.0,14.4,56.8,1011.9,336.4,3.0,5.2,328.5,0.29,6.0,14.4,"10:11:20",1
"19/11/19","10:30",0.0,14.6,55.7,1012.3,325.9,3.1,6.4,348.4,0.32,5.9,14.5,"10:22:40",1
"19/11/19","10:40",0.0,14.9,52.9,1012.3,310.1,2.3,6.4,323.8,0.35,5.4,14.4,"10:38:16",1
"19/11/19","10:50",0.0,15.3,52.7,1012.6,269.8,1.7,3.9,227.6,0.36,5.7,14.6,"10:46:48",1
"19/11/19","11:00",0.0,14.6,53.3,1012.1,308.2,2.6,7.1,348.0,0.22,5.3,14.8,"10:51:52",1
"19/11/19","11:10",0.0,14.7,53.9,1012.1,294.0,2.2,4.8,331.5,0.30,5.5,14.9,"11:03:12",1
"19/11/19","11:20",0.0,14.7,52.9,1011.9,327.4,2.8,7.2,353.4,0.32,5.2,14.9,"11:15:36",1
"19/11/19","11:30",0.0,14.4,53.0,1012.3,291.0,2.7,7.8,338.5,0.22,5.0,15.2,"11:26:48",1
"19/11/19","11:40",0.0,14.4,55.4,1012.1,272.5,2.1,4.2,289.2,0.26,5.6,15.2,"11:35:36",1
"19/11/19","11:50",0.0,14.9,54.2,1011.9,284.8,2.2,4.3,228.7,0.33,5.8,15.0,"11:40:16",1
"19/11/19","12:00",0.0,14.6,55.2,1011.9,295.2,2.0,4.7,331.0,0.24,5.8,15.2,"11:58:24",1
"19/11/19","12:10",0.0,14.2,56.3,1011.9,305.3,2.3,4.7,334.3,0.18,5.7,15.2,"12:08:08",1
"19/11/19","12:20",0.0,13.9,58.6,1011.6,324.1,2.7,5.8,345.5,0.16,6.0,15.3,"12:11:28",1
"19/11/19","12:30",0.0,14.9,59.3,1011.9,327.6,2.5,4.8,354.6,0.41,7.1,15.3,"12:21:20",1
"19/11/19","12:40",0.0,14.5,59.1,1011.4,341.1,2.7,5.1,327.1,0.42,6.7,15.4,"12:36:00",1
"19/11/19","12:50",0.0,14.7,58.5,1011.2,334.0,2.6,6.5,344.2,0.42,6.7,15.5,"12:40:48",1
"19/11/19","13:00",0.0,14.3,53.0,1011.2,330.9,4.1,9.4,343.0,0.48,4.9,15.7,"12:59:36",1
"19/11/19","13:10",0.0,14.6,52.4,1010.9,329.1,3.0,7.4,325.8,0.42,5.0,15.5,"13:02:08",1
"19/11/19","13:20",0.0,14.4,51.2,1011.2,329.8,3.4,6.7,327.7,0.41,4.5,15.8,"13:17:44",1
"19/11/19","13:30",0.0,14.9,51.8,1010.9,336.2,2.3,5.1,16.1,0.39,5.1,16.0,"13:25:04",1
"19/11/19","13:40",0.0,15.3,50.0,1010.2,327.9,2.6,6.0,334.5,0.41,5.0,16.0,"13:35:44",1
"19/11/19","13:50",0.0,15.1,49.4,1010.2,343.1,2.7,6.3,328.8,0.35,4.6,16.1,"13:40:32",1
"19/11/19","14:00",0.0,14.9,50.5,1010.4,320.6,2.8,5.9,328.6,0.29,4.8,16.2,"13:56:56",1
"19/11/19","14:10",0.0,15.1,51.1,1010.0,289.3,2.3,4.7,350.9,0.34,5.1,16.2,"14:00:16",1
"19/11/19","14:20",0.0,14.9,49.2,1010.4,295.0,3.0,6.7,355.7,0.34,4.4,16.3,"14:17:44",1
"19/11/19","14:30",0.0,14.9,49.7,1010.9,312.8,2.6,5.8,336.9,0.31,4.5,16.1,"14:21:36",1
"19/11/19","14:40",0.0,14.3,51.1,1010.7,319.2,3.0,7.4,327.7,0.20,4.4,16.1,"14:33:52",1
"19/11/19","14:50",0.0,14.9,50.3,1010.4,284.3,2.1,5.0,275.3,0.28,4.7,16.1,"14:47:52",1
"19/11/19","15:00",0.0,14.9,50.0,1010.7,290.5,2.7,5.7,317.0,0.25,4.6,16.3,"14:56:40",1
"19/11/19","15:10",0.0,14.7,50.3,1010.7,304.4,2.7,6.4,335.8,0.22,4.5,16.2,"15:05:12",1
"19/11/19","15:20",0.0,14.6,50.8,1010.4,297.7,3.0,7.9,333.2,0.21,4.6,16.0,"15:12:16",1
"19/11/19","15:30",0.0,14.7,50.0,1010.4,309.1,2.2,5.7,346.3,0.18,4.4,16.1,"15:22:40",1
"19/11/19","15:40",0.0,14.7,50.8,1010.7,318.2,2.1,5.4,342.5,0.17,4.7,16.0,"15:31:52",1
"19/11/19","15:50",0.0,14.4,51.6,1010.7,326.8,2.3,5.8,355.6,0.15,4.6,15.9,"15:46:00",1
"19/11/19","16:00",0.0,13.0,54.8,1010.9,343.3,2.8,7.2,347.9,0.03,4.2,15.8,"15:52:32",1
"19/11/19","16:10",0.0,12.3,56.9,1010.9,333.2,2.1,3.5,340.0,0.02,4.0,15.8,"16:02:56",1
"19/11/19","16:20",0.0,12.1,58.3,1010.9,336.9,2.2,3.9,348.1,0.01,4.2,15.8,"16:10:40",1
"19/11/19","16:30",0.0,12.2,58.8,1011.2,321.4,2.2,4.9,348.5,0.04,4.4,15.9,"16:27:52",1
"19/11/19","16:40",0.0,12.2,58.0,1011.2,324.4,2.2,3.7,322.4,0.02,4.2,15.6,"16:39:52",1
"19/11/19","16:50",0.0,11.9,56.3,1011.2,326.2,3.0,5.2,313.5,0.00,3.5,15.6,"16:44:24",1
"19/11/19","17:00",0.0,11.6,56.8,1011.4,330.4,2.3,4.2,338.6,0.00,3.4,15.4,"16:54:30",1
"19/11/19","17:10",0.0,11.5,56.3,1011.2,341.3,3.0,5.4,337.3,0.00,3.2,15.3,"17:08:54",1
"19/11/19","17:20",0.0,11.5,55.7,1011.4,333.3,2.8,6.5,17.0,0.00,3.0,15.1,"17:16:18",1
"19/11/19","17:30",0.0,11.3,57.0,1011.9,331.6,2.7,4.9,16.5,0.00,3.1,15.1,"17:22:04",1
"19/11/19","17:40",0.0,10.8,58.4,1011.6,316.9,2.1,4.3,329.0,0.00,3.0,14.9,"17:30:08",1
"19/11/19","17:50",0.0,10.6,59.4,1011.9,324.3,2.2,4.8,325.6,0.00,3.1,14.7,"17:48:00",1
"19/11/19","18:00",0.0,10.4,60.0,1012.1,325.8,2.2,5.1,311.0,0.00,3.0,14.7,"17:53:30",1
"19/11/19","18:10",0.0,10.3,60.5,1012.6,323.5,2.7,4.5,310.0,0.00,3.0,14.7,"18:09:20",1
"19/11/19","18:20",0.0,10.3,60.6,1012.8,330.1,3.2,8.7,335.3,0.00,3.1,14.7,"18:11:04",1
"19/11/19","18:30",0.0,10.0,61.4,1012.8,311.4,1.8,3.4,325.5,0.00,3.0,14.4,"18:28:56",1
"19/11/19","18:40",0.0,9.9,62.1,1013.0,318.7,2.3,5.9,0.2,0.00,3.0,14.5,"18:34:16",1
"19/11/19","18:50",0.0,9.9,62.2,1013.0,285.2,2.0,3.5,278.8,0.00,3.1,14.1,"18:41:04",1
"19/11/19","19:00",0.0,9.9,62.5,1013.3,320.4,2.7,6.5,327.6,0.00,3.1,14.2,"18:56:08",1
"19/11/19","19:10",0.0,9.8,63.0,1013.5,316.3,2.3,4.7,335.2,0.00,3.1,13.9,"19:06:16",1
"19/11/19","19:20",0.0,9.7,63.3,1013.5,303.3,2.0,5.1,306.8,0.00,3.1,14.0,"19:13:04",1
"19/11/19","19:30",0.0,9.6,64.2,1013.5,320.1,2.3,4.5,338.5,0.00,3.2,13.9,"19:27:28",1
"19/11/19","19:40",0.0,9.8,64.0,1013.3,292.9,2.5,6.3,326.5,0.00,3.4,13.8,"19:33:28",1
"19/11/19","19:50",0.0,9.5,64.4,1014.0,307.4,1.8,4.0,336.9,0.00,3.2,13.8,"19:40:32",1
"19/11/19","20:00",0.0,9.3,64.9,1014.0,309.4,1.7,3.3,333.5,0.00,3.1,13.7,"19:59:20",1
"19/11/19","20:10",0.0,9.1,65.5,1014.0,297.6,1.6,3.2,301.5,0.00,3.0,13.7,"20:05:28",1
"19/11/19","20:20",0.0,9.0,66.5,1014.2,299.4,2.1,6.0,337.7,0.00,3.1,13.7,"20:18:16",1
"19/11/19","20:30",0.0,9.0,66.9,1014.0,313.1,2.1,6.0,333.4,0.00,3.2,13.7,"20:22:08",1
"19/11/19","20:40",0.0,9.0,67.4,1014.0,316.2,2.3,5.9,334.0,0.00,3.3,13.4,"20:35:12",1
"19/11/19","20:50",0.0,8.8,68.0,1014.2,297.2,1.7,2.9,322.5,0.00,3.3,13.4,"20:45:12",1
"19/11/19","21:00",0.0,8.7,68.6,1014.5,305.9,2.1,4.4,317.5,0.00,3.3,13.6,"20:53:28",1
"19/11/19","21:10",0.0,8.6,69.1,1014.7,289.6,1.6,3.3,320.6,0.00,3.3,13.3,"21:02:48",1
"19/11/19","21:20",0.0,8.3,69.7,1014.5,300.4,1.5,3.3,314.7,0.00,3.1,13.3,"21:19:12",1
"19/11/19","21:30",0.0,8.2,70.4,1014.7,300.3,1.7,4.8,343.1,0.00,3.2,13.3,"21:25:12",1
"19/11/19","21:40",0.0,8.2,71.1,1014.9,299.0,1.6,4.9,327.6,0.00,3.3,13.4,"21:35:44",1
"19/11/19","21:50",0.0,8.2,71.6,1014.7,288.5,1.3,2.2,266.2,0.00,3.4,13.2,"21:41:44",1
"19/11/19","22:00",0.0,8.2,72.1,1014.9,283.3,1.5,2.2,257.8,0.00,3.5,13.0,"21:52:56",1
"19/11/19","22:10",0.0,8.4,72.4,1014.9,288.6,1.5,2.1,301.3,0.00,3.8,13.0,"22:00:08",1
"19/11/19","22:20",0.0,8.5,72.6,1014.7,287.9,1.6,3.3,309.7,0.00,3.9,13.0,"22:13:36",1
"19/11/19","22:30",0.0,8.6,72.8,1015.2,281.0,1.6,3.2,304.3,0.00,4.0,13.0,"22:28:56",1
"19/11/19","22:40",0.0,8.7,73.0,1015.4,278.9,1.8,4.0,262.5,0.00,4.2,13.0,"22:35:28",1
"19/11/19","22:50",0.0,8.8,73.2,1014.9,282.3,2.2,5.1,261.6,0.00,4.3,12.8,"22:46:08",1
"19/11/19","23:00",0.0,8.8,73.5,1015.2,288.0,2.0,3.5,245.0,0.00,4.4,12.9,"22:58:08",1
"19/11/19","23:10",0.0,8.8,73.9,1015.6,270.2,2.1,4.0,243.1,0.00,4.4,13.1,"23:01:44",1
"19/11/19","23:20",0.0,8.7,74.5,1015.6,266.2,2.1,5.2,236.0,0.00,4.5,13.0,"23:14:18",1
"19/11/19","23:30",0.0,8.6,74.8,1015.6,281.7,1.6,2.5,312.6,0.00,4.4,12.8,"23:24:56",1
"19/11/19","23:40",0.0,8.6,75.2,1015.9,291.3,1.8,3.3,300.3,0.00,4.5,12.7,"23:32:56",1
"19/11/19","23:50",0.0,8.6,75.4,1015.6,296.9,1.8,4.4,335.5,0.00,4.5,12.8,"23:44:40",1
"19/11/19","24:00",0.0,8.6,75.7,1016.1,311.9,2.1,4.5,330.6,0.00,4.6,12.8,"23:53:44",1
